Concord, CA

5:55 PM PST on December 04, 2016 (GMT -0800)
Buchanan

Weather History for KCCR - October, 2012

Change the Weather History Date:

Saturday, October 6, 2012

  Actual Average Record
Temperature  
Mean Temperature 63 °F 66 °F  
Max Temperature 73 °F 80 °F 95 °F (2014)
Min Temperature 52 °F 53 °F 43 °F (2007)
Degree Days  
Heating Degree Days 2    
Month to date heating degree days 2  
Since 1 July heating degree days 14  
Cooling Degree Days 0    
Month to date cooling degree days 41  
Year to date cooling degree days 767  
Growing Degree Days 12 (Base 50)    
Moisture  
Dew Point 49 °F    
Average Humidity 67    
Maximum Humidity 93    
Minimum Humidity 41    
Precipitation  
Precipitation 0.00 in - 0.09 in (2011)
Month to date precipitation 0.00  
Year to date precipitation 9.67  
Since 1 July precipitation T  
Sea Level Pressure  
Sea Level Pressure 29.98 in    
Wind  
Wind Speed 7 mph (WSW)    
Max Wind Speed 15 mph    
Max Gust Speed 20 mph    
Visibility 10 miles    
Events      
T = Trace of Precipitation, MM = Missing Value Source: NWS Daily Summary

Daily Weather History Graph

Daily Weather History Graph

Search for Another Location

Airport or City:

Trip Planner

Search our weather history database for the weather conditions in past years. The results will help you decide how hot, cold, wet, or windy it might be!

Date:

Astronomy

Oct. 06, 2012 Rise Set
Actual Time 7:08 AM PDT 6:42 PM PDT
Civil Twilight 6:42 AM PDT 7:09 PM PDT
Nautical Twilight 6:12 AM PDT 7:39 PM PDT
Astronomical Twilight 5:41 AM PDT 8:09 PM PDT
Moon 11:07 PM PDT (10/6) 1:03 PM PDT (10/6)
Length of Visible Light 12h 26m
Length of Day
11h 33m
Waning Gibbous, 64% of the Moon is Illuminated
Oct 6
Waning Gibbous
Oct 8
Last Quarter
Oct 15
New
Oct 21
First Quarter
Oct 29
Full

Hourly Weather History & Observations

Time (PDT) Temp. Dew Point Humidity Pressure Visibility Wind Dir Wind Speed Gust Speed Precip Events Conditions
12:53 AM 59.0 °F 53.1 °F 81% 30.03 in 10.0 mi SSW 8.1 mph - N/A   Clear
1:53 AM 57.0 °F 52.0 °F 83% 30.03 in 10.0 mi SSE 4.6 mph - N/A   Clear
2:53 AM 55.9 °F 52.0 °F 87% 30.03 in 10.0 mi Calm Calm - N/A   Clear
3:53 AM 54.0 °F 50.0 °F 86% 30.01 in 10.0 mi South 3.5 mph - N/A   Clear
4:53 AM 55.0 °F 50.0 °F 83% 30.01 in 10.0 mi South 6.9 mph - N/A   Clear
5:53 AM 53.1 °F 50.0 °F 89% 30.01 in 10.0 mi South 5.8 mph - N/A   Clear
6:53 AM 52.0 °F 48.9 °F 89% 30.02 in 10.0 mi South 4.6 mph - N/A   Clear
7:53 AM 54.0 °F 51.1 °F 90% 30.02 in 10.0 mi South 3.5 mph - N/A   Clear
8:53 AM 60.1 °F 50.0 °F 69% 30.02 in 10.0 mi SSW 6.9 mph - N/A   Clear
9:53 AM 64.9 °F 48.9 °F 56% 30.02 in 10.0 mi West 8.1 mph - N/A   Clear
10:53 AM 66.0 °F 48.0 °F 52% 30.02 in 10.0 mi WSW 10.4 mph - N/A   Clear
11:53 AM 66.9 °F 48.0 °F 51% 30.01 in 10.0 mi West 10.4 mph - N/A   Clear
12:53 PM 71.1 °F 48.0 °F 44% 29.99 in 10.0 mi NW 11.5 mph 16.1 mph N/A   Clear
1:53 PM 70.0 °F 48.0 °F 46% 29.97 in 10.0 mi WNW 3.5 mph - N/A   Clear
2:53 PM 72.0 °F 46.9 °F 41% 29.95 in 10.0 mi WNW 9.2 mph - N/A   Clear
4:53 PM 71.1 °F 46.9 °F 42% 29.93 in 10.0 mi WNW 12.7 mph - N/A   Clear
5:53 PM 70.0 °F 48.0 °F 46% 29.92 in 10.0 mi SW 8.1 mph - N/A   Clear
6:53 PM 66.0 °F 48.0 °F 52% 29.92 in 10.0 mi West 6.9 mph - N/A   Clear
7:53 PM 62.1 °F 48.9 °F 62% 29.94 in 10.0 mi WNW 8.1 mph - N/A   Clear
8:53 PM 59.0 °F 51.1 °F 75% 29.94 in 10.0 mi WNW 6.9 mph - N/A   Clear
9:53 PM 57.9 °F 50.0 °F 75% 29.94 in 10.0 mi SW 6.9 mph - N/A   Clear
10:53 PM 57.0 °F 50.0 °F 77% 29.95 in 10.0 mi West 4.6 mph - N/A   Clear
11:53 PM 55.9 °F 50.0 °F 80% 29.95 in 10.0 mi SW 4.6 mph - N/A   Clear